LAS PALMAS current weather conditions

sailwx.info

Wind from 020 at 8 knots

Air temperature 26.0° C
Dewpoint 13.0° C

Last reported at 2014-Oct-23 19:30 UTC.
Time now 2014-Oct-23 21:17 UTC

Location: N 27°56' W 015°23'.
View on Google Maps.

See reports from other nearby stations

  
Tides and Currents Weather Stations Pressure Air Temp Water Temp Dewpoint Dewpoint Depression Visibility Wind Speed Wind Dir Waves Ship Positions
date/time (UTC)wind fromknots sea level pressurealtimeterstation pressurevisibilityair tempwater tempwave heightnotes
2014-Oct-23 20:30 360 5 26.0
2014-Oct-23 20:00 010 8 26.0
2014-Oct-23 19:30 020 8 26.0
2014-Oct-23 19:00 020 9 26.0
2014-Oct-23 18:30 020 9 26.0
2014-Oct-23 18:00 040 9 27.0
2014-Oct-23 17:30 040 10 28.0
2014-Oct-23 17:00 030 9 27.0
2014-Oct-23 16:30 030 12 27.0
2014-Oct-23 16:00 030 13 27.0
2014-Oct-23 15:30 030 16 27.0
2014-Oct-23 15:00 030 18 27.0
2014-Oct-23 14:30 030 17 28.0
2014-Oct-23 14:00 040 16 29.0
2014-Oct-23 13:30 030 17 29.0
2014-Oct-23 13:00 030 15 30.0
2014-Oct-23 12:30 030 14 30.0
2014-Oct-23 12:00 030 14 30.0
2014-Oct-23 11:30 030 12 31.0
2014-Oct-23 11:00 020 15 29.0
2014-Oct-23 10:30 030 15 29.0
2014-Oct-23 10:00 020 13 29.0
2014-Oct-23 09:30 020 12 28.0
2014-Oct-23 09:00 020 11 27.0
2014-Oct-23 08:30 020 11 26.0
2014-Oct-23 08:00 010 10 25.0
2014-Oct-23 07:30 360 9 25.0
2014-Oct-23 07:00 360 10 25.0
2014-Oct-23 06:30 350 12 25.0
2014-Oct-23 06:00 350 12 25.0
2014-Oct-23 05:30 360 12 25.0
2014-Oct-23 05:00 360 11 24.0
2014-Oct-23 04:30 360 11 25.0
2014-Oct-23 04:00 010 11 25.0
2014-Oct-23 03:30 360 11 26.0
2014-Oct-23 03:00 360 13 26.0
2014-Oct-23 02:30 010 11 26.0
2014-Oct-23 02:00 010 11 26.0
2014-Oct-23 01:30 360 10 26.0
2014-Oct-23 01:00 360 11 26.0
2014-Oct-23 00:30 010 11 26.0
2014-Oct-23 00:00 360 9 27.0
2014-Oct-22 23:30 010 10 27.0
2014-Oct-22 23:00 360 9 27.0
2014-Oct-22 22:30 360 10 27.0
2014-Oct-22 22:00 360 11 27.0
2014-Oct-22 21:30 020 12 26.0
2014-Oct-22 21:00 020 11 26.0
2014-Oct-22 20:30 020 10 26.0
2014-Oct-22 20:00 010 11 27.0
2014-Oct-22 19:30 010 9 27.0
2014-Oct-22 19:00 010 10 27.0
2014-Oct-22 18:30 020 11 27.0
2014-Oct-22 18:00 030 12 28.0
2014-Oct-22 17:30 030 11 29.0
2014-Oct-22 17:00 020 10 29.0
2014-Oct-22 16:30 020 12 29.0
2014-Oct-22 16:00 030 13 30.0
2014-Oct-22 15:30 030 12 31.0
2014-Oct-22 15:00 030 13 31.0
2014-Oct-22 14:30 030 13 33.0
2014-Oct-22 14:00 030 13 34.0
2014-Oct-22 13:30 030 13 36.0
2014-Oct-22 13:00 030 12 35.0
2014-Oct-22 12:30 020 12 35.0
2014-Oct-22 12:00 010 12 35.0
2014-Oct-22 11:30 360 12 35.0
2014-Oct-22 11:00 010 12 34.0
2014-Oct-22 10:30 020 13 34.0
2014-Oct-22 10:00 020 14 34.0
2014-Oct-22 09:30 350 13 33.0
2014-Oct-22 09:00 350 14 32.0
2014-Oct-22 08:30 360 10 32.0
2014-Oct-22 08:00 010 12 29.0
2014-Oct-22 07:30 360 12 29.0
2014-Oct-22 07:00 340 13 5.430.0
2014-Oct-22 06:30 330 13 5.430.0
2014-Oct-22 06:00 330 14 5.430.0
2014-Oct-22 05:30 340 14 30.0
2014-Oct-22 05:00 350 12 29.0
2014-Oct-22 04:30 350 14 5.429.0
2014-Oct-22 04:00 360 13 5.429.0
2014-Oct-22 03:30 360 11 5.430.0
2014-Oct-22 03:00 350 13 5.430.0
2014-Oct-22 02:30 350 14 5.429.0
2014-Oct-22 02:00 350 13 5.429.0
2014-Oct-22 01:30 350 13 5.429.0
2014-Oct-22 01:00 340 14 5.429.0
2014-Oct-22 00:30 360 14 5.429.0
2014-Oct-22 00:00 350 12 5.430.0
2014-Oct-21 23:30 350 12 5.429.0
2014-Oct-21 23:00 350 13 5.429.0
2014-Oct-21 22:30 340 14 5.428.0
2014-Oct-21 22:00 360 12 5.428.0
2014-Oct-21 21:30 350 13 5.426.0
2014-Oct-21 21:00 360 14 5.426.0